DECAYED

STARLINK-1533, 46069 (Decayed)

Orbit data source: Space-Track

STARLINK-1533, 46069 was a payload satellite owned by SpaceX/Seattle (US) in LEO that was launched on Fri, 07 Aug 2020 UTC via an FALCON 9 launch vehicle from the Air Force Eastern Test Range (AFETR). Payload-class satellites include a variety of spacecraft equipped with specific instruments for various scientific and technological missions. These include communications satellites like Starlink; space stations such as the ISS; scientific satellites like the Hubble; Earth observation satellites from companies like Planet Labs, Umbra, and HawkEye 360; GPS; miniature CubeSats for education and research; and military/defense satellites.

Not visible in the next 10 days
Identifier
46069, 2020-055AU
Orbit
Decayed
Country
Flag of USUS
Related business
Manufacturer
SpaceX/Seattle
Mission
Decayed Commercial Communications
Bus & Motor
STARLINK, Unknown motor
Mass
260 kg wet, ~248 kg dry
Launch date (UTC)
2020-08-07 (6 years ago)
Launch vehicle
FALCON 9
Launch site
Air Force Eastern Test Range (AFETR)
Object type
Payload
Rocket body
Debris
Shape & HBR
Box + 1 Pan, 10.1 m
Radar Cross Section
13.562 m², Large (>1 m²)

Expand to show TLE details & history
Last TLE update: 10 months ago

TLE from 10 months ago
0 STARLINK-1533
1 46069U 20055AU  25101.88500336  .14363292  12610-4  42081-3 0  9991
2 46069  53.0220  97.5930 0006715   0.9499  71.5585 16.44840186259416
Epoch: 2025-04-11T21:14Z
TLE epoch observation values (Epoch: 2025-04-11T21:14:24.290Z)
Latitude
49.81719°
Longitude
1.07974°
Altitude
157.289 km
Speed
7.819 km/s
True Right ascension
10h 40m 04s
True Declination
49° 37' 55"
Sunlit
Object was in full shadow at epoch
Visualization orbit readout
Latitude
Unknown
Longitude
Unknown
Altitude
Unknown
Speed
Unknown
Apparent Right ascension
Unknown
Apparent Declination
Unknown
Sunlit
N/A
Visualization observer readout
Local Sidereal Time
05:33:47
Azimuth
Unknown
Elevation
Unknown
Doppler factor
Unknown
Orbital elements
Apogee altitude
157.636 km
Perigee altitude
148.865 km
Semi-major axis
6,531.388 km
Eccentricity
0.00067
Inclination
53.022°
RAAN
97.593°
Arg. of periapsis
0.9499°
True anomaly
71.63152°
Mean anomaly
71.5585°
Eccentric anomaly
71.59501°
Mean motion
4.11183 °/min
Orbital period
87.55 mins
BSTAR
0.00042081
Loading maneuver chart data...
Computing Atmospheric mass density...
Loading historical data...
Loading historical data...
Loading historical data...
Loading historical data...
Loading historical data...
Loading historical data...
Loading historical data...

Documentation

Showing up to 5 results
|